Weather History for KACK - May, 2012

Change the Weather History Date:

Friday, May 25, 2012

  Actual Average Record
Temperature  
Mean Temperature 57 °F -  
Max Temperature 62 °F 60 °F 84 °F (2007)
Min Temperature 53 °F 47 °F 39 °F (1972)
Degree Days  
Heating Degree Days 8    
Growing Degree Days 7 (Base 50)    
Moisture  
Dew Point 56 °F    
Average Humidity 98    
Maximum Humidity 100    
Minimum Humidity 87    
Precipitation  
Precipitation 0.00 in - - ()
Sea Level Pressure  
Sea Level Pressure 30.23 in    
Wind  
Wind Speed 8 mph (SE)    
Max Wind Speed 13 mph    
Max Gust Speed -    
Visibility 2 miles    
Events Fog    
Averages and records for this station are not official NWS values.
T = Trace of Precipitation, MM = Missing Value Source: NWS Daily Summary

Daily Weather History Graph

Daily Weather History Graph

Search for Another Location

Airport or City:

Trip Planner

Search our weather history database for the weather conditions in past years. The results will help you decide how hot, cold, wet, or windy it might be!

Date:

Astronomy

May. 25, 2012 Rise Set
Actual Time 5:13 AM EDT 8:01 PM EDT
Civil Twilight 4:40 AM EDT 8:34 PM EDT
Nautical Twilight 3:59 AM EDT 9:15 PM EDT
Astronomical Twilight 3:13 AM EDT 10:02 PM EDT
Moon 9:10 AM EDT (5/25) 11:34 PM EDT (5/25)
Length of Visible Light 15h 53m
Length of Day
14h 48m
Waxing Crescent, 19% of the Moon is Illuminated
May 25
Waxing Crescent
May 28
First Quarter
Jun 4
Full
Jun 11
Last Quarter
Jun 19
New

Hourly Weather History & Observations

Time (EDT) Temp. Dew Point Humidity Pressure Visibility Wind Dir Wind Speed Gust Speed Precip Events Conditions
12:22 AM 53.6 °F 53.6 °F 100% 30.27 in 0.2 mi SE 9.2 mph - N/A Fog Fog
12:35 AM 53.6 °F 53.6 °F 100% 30.27 in 0.2 mi SE 8.1 mph - N/A Fog Fog
12:53 AM 54.0 °F 54.0 °F 100% 30.26 in 0.2 mi SE 9.2 mph - N/A Fog Fog
1:06 AM 53.6 °F 53.6 °F 100% 30.26 in 0.5 mi SE 6.9 mph - N/A Fog Fog
1:30 AM 55.4 °F 55.4 °F 100% 30.26 in 0.2 mi SE 8.1 mph - N/A Fog Fog
1:39 AM 55.4 °F 55.4 °F 100% 30.26 in 0.2 mi SE 6.9 mph - N/A Fog Fog
1:53 AM 55.0 °F 55.0 °F 100% 30.26 in 0.5 mi SE 6.9 mph - N/A Fog Fog
2:53 AM 55.9 °F 55.9 °F 100% 30.25 in 0.5 mi SE 8.1 mph - N/A Fog Fog
3:37 AM 55.4 °F 55.4 °F 100% 30.25 in 0.2 mi SE 6.9 mph - N/A Fog Fog
3:53 AM 55.9 °F 55.9 °F 100% 30.25 in 0.2 mi SE 6.9 mph - N/A Fog Fog
4:17 AM 55.4 °F 55.4 °F 100% 30.25 in 0.5 mi SE 6.9 mph - N/A Fog Fog
4:33 AM 55.4 °F 55.4 °F 100% 30.25 in 1.0 mi SE 6.9 mph - N/A   Mist
4:42 AM 55.4 °F 55.4 °F 100% 30.25 in 0.8 mi SE 6.9 mph - N/A   Mist
4:53 AM 55.9 °F 55.9 °F 100% 30.25 in 0.5 mi ESE 6.9 mph - N/A Fog Fog
5:09 AM 55.4 °F 55.4 °F 100% 30.25 in 0.2 mi ESE 6.9 mph - N/A Fog Fog
5:29 AM 55.4 °F 55.4 °F 100% 30.26 in 0.5 mi East 5.8 mph - N/A Fog Fog
5:53 AM 55.9 °F 55.9 °F 100% 30.26 in 0.8 mi ESE 6.9 mph - N/A   Mist
6:53 AM 55.9 °F 55.9 °F 100% 30.27 in 0.8 mi East 8.1 mph - N/A   Mist
7:53 AM 55.9 °F 55.9 °F 100% 30.28 in 0.5 mi ESE 6.9 mph - N/A Fog Fog
8:35 AM 55.4 °F 55.4 °F 100% 30.27 in 0.2 mi ESE 9.2 mph - N/A Fog Fog
8:53 AM 55.9 °F 55.9 °F 100% 30.27 in 0.2 mi ESE 10.4 mph - N/A Fog Fog
9:53 AM 57.0 °F 57.0 °F 100% 30.27 in 0.2 mi ESE 10.4 mph - N/A Fog Fog
10:53 AM 57.9 °F 57.9 °F 100% 30.25 in 0.2 mi SE 12.7 mph - N/A Fog Fog
11:10 AM 57.2 °F 57.2 °F 100% 30.25 in 1.0 mi SE 10.4 mph - N/A   Mist
11:53 AM 57.9 °F 57.9 °F 100% 30.24 in 3.0 mi SE 11.5 mph - N/A   Overcast
12:24 PM 60.8 °F 57.2 °F 88% 30.25 in 10.0 mi SE 10.4 mph - N/A   Overcast
12:46 PM 59.0 °F 57.2 °F 94% 30.24 in 4.0 mi SE 10.4 mph - N/A   Overcast
12:53 PM 59.0 °F 57.0 °F 93% 30.25 in 3.0 mi SE 9.2 mph - N/A   Overcast
1:24 PM 60.8 °F 57.2 °F 88% 30.24 in 10.0 mi SE 9.2 mph - N/A   Overcast
1:53 PM 61.0 °F 57.0 °F 87% 30.24 in 10.0 mi SE 10.4 mph - N/A   Overcast
2:12 PM 60.8 °F 57.2 °F 88% 30.23 in 2.0 mi SSE 9.2 mph - N/A   Overcast
2:53 PM 61.0 °F 57.9 °F 90% 30.24 in 5.0 mi SSE 8.1 mph - N/A   Overcast
3:53 PM 60.1 °F 57.9 °F 93% 30.23 in 10.0 mi SSE 10.4 mph - N/A   Overcast
4:25 PM 60.8 °F 57.2 °F 88% 30.21 in 10.0 mi SE 11.5 mph - N/A   Overcast
4:53 PM 60.1 °F 57.9 °F 93% 30.21 in 6.0 mi SE 10.4 mph - N/A   Overcast
5:53 PM 59.0 °F 57.9 °F 96% 30.19 in 7.0 mi SE 10.4 mph - N/A   Overcast
6:10 PM 59.0 °F 57.2 °F 94% 30.19 in 2.0 mi SE 11.5 mph - N/A   Overcast
6:29 PM 57.2 °F 57.2 °F 100% 30.19 in 0.5 mi SE 9.2 mph - N/A Fog Fog
6:53 PM 57.9 °F 57.9 °F 100% 30.19 in 0.5 mi SE 9.2 mph - N/A Fog Fog
7:01 PM 57.2 °F 57.2 °F 100% 30.18 in 0.2 mi SE 9.2 mph - N/A Fog Fog
7:08 PM 57.2 °F 57.2 °F 100% 30.18 in 0.2 mi SE 9.2 mph - N/A Fog Fog
7:53 PM 57.0 °F 57.0 °F 100% 30.20 in 0.2 mi SE 4.6 mph - N/A Fog Fog
8:07 PM 57.2 °F 57.2 °F 100% 30.19 in 0.2 mi SE 4.6 mph - N/A Fog Fog
8:15 PM 57.2 °F 57.2 °F 100% 30.19 in 0.2 mi SSE 6.9 mph - N/A Fog Fog
8:18 PM 57.2 °F 57.2 °F 100% 30.19 in 0.2 mi SSE 6.9 mph - N/A Fog Fog
8:53 PM 57.0 °F 57.0 °F 100% 30.19 in 0.2 mi SSE 8.1 mph - N/A Fog Fog
9:10 PM 57.2 °F 57.2 °F 100% 30.20 in 0.2 mi South 6.9 mph - N/A Fog Fog
9:25 PM 57.2 °F 57.2 °F 100% 30.19 in 0.2 mi South 5.8 mph - N/A Fog Fog
9:53 PM 57.0 °F 57.0 °F 100% 30.18 in 0.2 mi South 6.9 mph - N/A Fog Fog
10:53 PM 57.0 °F 57.0 °F 100% 30.17 in 0.2 mi South 5.8 mph - N/A Fog Fog
11:53 PM 57.0 °F 57.0 °F 100% 30.17 in 0.2 mi South 5.8 mph - N/A Fog Fog